This is the latest recevied weather packets stored in our database for station/object EA1RCG-11. If no packets are shown the sender has not sent any weather packets the latest 10 day(s).
| Time | Temp. | Humidity | Pressure | Rain* | Wind** | Luminosity | Snow |
|---|---|---|---|---|---|---|---|
| 1787958450 | 16.67° C | 57% | 984.2 hPa | - | - | - | - |
| 1787956650 | 17.22° C | 57% | 984.3 hPa | - | - | - | - |
| 1787954850 | 17.78° C | 57% | 984.2 hPa | - | - | - | - |
| 1787953050 | 18.33° C | 56% | 984.3 hPa | - | - | - | - |
| 1787951250 | 18.89° C | 56% | 984.2 hPa | - | - | - | - |
| 1787949450 | 19.44° C | 55% | 984 hPa | - | - | - | - |
| 1787947650 | 19.44° C | 56% | 983.9 hPa | - | - | - | - |
| 1787945850 | 20° C | 55% | 983.5 hPa | - | - | - | - |
| 1787944050 | 21.67° C | 53% | 983.1 hPa | - | - | - | - |
| 1787942249 | 22.78° C | 52% | 982.7 hPa | - | - | - | - |
| 1787940449 | 23.89° C | 51% | 982.4 hPa | - | - | - | - |
| 1787938649 | 24.44° C | 50% | 982.6 hPa | - | - | - | - |
| 1787936849 | 24.44° C | 50% | 982.7 hPa | - | - | - | - |
| 1787935049 | 25° C | 50% | 982.5 hPa | - | - | - | - |
| 1787933249 | 25° C | 49% | 982.4 hPa | - | - | - | - |
| 1787931449 | 25.56° C | 49% | 982.2 hPa | - | - | - | - |
| 1787929649 | 26.11° C | 49% | 982.2 hPa | - | - | - | - |
| 1787927849 | 27.22° C | 47% | 981.9 hPa | - | - | - | - |
| 1787926049 | 27.78° C | 47% | 981.9 hPa | - | - | - | - |
| 1787924248 | 26.67° C | 48% | 981.9 hPa | - | - | - | - |
| 1787922448 | 27.22° C | 47% | 981.7 hPa | - | - | - | - |
| 1787920648 | 26.67° C | 48% | 981.8 hPa | - | - | - | - |
| 1787918848 | 26.67° C | 48% | 981.8 hPa | - | - | - | - |
| 1787917048 | 28.89° C | 46% | 981.9 hPa | - | - | - | - |
| 1787915248 | 29.44° C | 45% | 981.7 hPa | - | - | - | - |
* Rain since midnight (hover to see other rain measurements)
** Current wind speed in m/s (hover to see current wind gust speed)